"Pseudo-MPEC" for P10L97v

Created 2019 Jan 12 22:18:16 UT using Find_Orb

Click here for an explanation of pseudo-MPECs

 
 Astrometry: 
     P10L97v  C2019 01 089vnr1!Astrometryn`y6OIuM(ik*?weDA.FUIU[UI1IACK6)J2s_F51
     P10L97v  C2019 01 085-FVomfrHGMK2wm/H]8Lc$E?dkWlOyHdaotVb:)d;VjNS]]UtP'7F51
     P10L97v  C2019 01 08?GhgeO\:_xTh=pE-DRD[.r15/f@85/W6wEVL[peZJ.Q@S8_\mTe]F51
     P10L97v  C2019 01 09m!%j5p\+5pUCGPP_H6u))B@FM@*qbwMAAredacted;MVkca'3qJZV06
     P10L97v  C2019 01 09tQH;Ru5\Gw4Ns/UO!?7(RbRgc-:fx=lsHnhD#7kT%?M4tWimHK0XV06
     P10L97v |C2019 01 09x`7!.%!R\8Cjq,kOO^w!^-Y%ZD;MbmgynvXJN:L+4h#t3RIr)J06807
     P10L97v  C2019 01 09j,ejU;H%i=AoU8YOKeSwn#.*aR.ik+3wJWRe1/wS$yclickb2lBwV06
     P10L97v  C2019 01 09cY],$B@VGQ.2W@u.MTa5Js'lp2;)9jFM'-QJMaqXp]6j3x=g`,kYV06
     P10L97v |C2019 01 09wcjD6KQBOX)F6S^wK%:l?!]xiA(]kN[/rYyCdAsv%sf21m0\L$Nk807
     P10L97v |C2019 01 09,STgbaId]v:p([MlyKFD*fBSNn_[w\Z8+xu\8kRN3lhere@+Ek,D807
     P10L97v ^C2019 01 09.21903202 40 19.134-12 31 20.90   ~197I 21.46GVNEOCP568
     P10L97v ^C2019 01 09.21997802 40 19.255-12 31 18.61   ~197I 21.49GVNEOCP568
     P10L97v ^C2019 01 09.22093302 40 19.379-12 31 16.27   ~197I 21.48GVNEOCP568
     P10L97v |C2019 01 10B[6HXr(qWZF9rlE6@3\:\,$\Ql?Qa3pcEBEy%=mw/8gOKJCD,)f?807
     P10L97v |C2019 01 10r..=PSZ)2Qv/`iwi:!28a;M[n+tSCsK+(i[5#dHT;1n*.]xcI7J?807
     P10L97v |C2019 01 10.YHYford*y@YB3Y-[=p;YB,^a85mrk!+:4JD7#pA:^TH?q8gwZs5807
     P10L97v |C2019 01 11OZ\in,h_0,V+Gn`o31gKx+LT'8%eqn+^8SE9/fI:3=\PfIVdh;6v807
     P10L97v |C2019 01 110^oH8n(Q#nT\qrr!^v1IM9:oB;1uLAZuirjK#msW1/(*(]h$okvB807
     P10L97v KC2019 01 12VWw6R@.Bkej?v!N$_Vb(41M0S2xm+UJR`osIk45]1k2iPB+21`uI291
     P10L97v KC2019 01 126x/PG\yl!h(8Ss$B#GN62DPexplanation-n]ph?MX=\c?b0tP8f291

Station data:
(291) LPL/Spacewatch II  (N31.961669 W111.599905)  US/Arizona.  Observers J.
   V. Scotti, R. S. McMillan. 1.8-m f/2.7 reflector + CCD.
(568) Mauna Kea  (N19.826116 W155.472200)  US/Hawaii.
(807) Cerro Tololo Observatory, La Serena  (S30.169136 W70.805900)  Chile.
   1.5-m Ritchey-Chrétien.
(F51) Pan-STARRS 1, Haleakala  (N20.707235 W156.255910)  US/Hawaii.
   Observers N. Primak, A. Schultz, S. Watters, J. Thiel, T. Goggia. Measurer
   PS1 Science Consortium. 1.8-m Ritchey-Chrétien + CCD.
(V06) Catalina Sky Survey-Kuiper  (N32.416847 W110.732550)  US/Arizona.
   Observers B. M. Africano, E. J. Christensen, G. A. Farneth, D. C. Fuls, A.
   R. Gibbs, A. D. Grauer, H. Groeller, J. A. Johnson, R. A. Kowalski, S. M.
   Larson, G. J. Leonard, R. L. Seaman, F. C. Shelly. 1.55-m reflector + CCD.

Orbital elements:  P10L97v
   Perihelion 2018 Oct 16.647983 +/- 0.251 TT = 15:33:05 (JD 2458408.147983)
Epoch 2019 Jan 12.0 TT = JDT 2458495.5   Earth MOID: 0.3201   AutoNEOCP
M  28.19055659 +/- 2.1              (J2000 ecliptic)
n   0.32272358 +/- 0.0247           Peri.  183.97233 +/- 1.7
a   2.10498453 +/- 0.107            Node   131.26361 +/- 0.9
e   0.7409929 +/- 0.0102            Incl.   18.88296 +/- 0.26
P   3.05                   H 19.6   G  0.15   U 10.3  
q 0.54520580 +/- 0.0073    Q 3.66476326 +/- 0.226
From 20 observations 2019 Jan. 8-12; mean residual 0".28
Residuals in arcseconds: 
190108 F51  .14-  .10-    190109 V06  .05+  .09-    190110 807  .31-  .12+    
190108 F51  .33+  .08-    190109 807  .18-  .23+    190110 807  .22-  .06-    
190108 F51  .22+  .08+    190109 807  .16-  .13+    190111 807  .31+  .14-    
190109 V06  .09+  .11-    190109 568  .10-  .02-    190111 807  1.0+  .05+    
190109 V06  .01-  .14+    190109 568  .12-  .03-    190112 291  .15-  .79-    
190109 807  .05-  .02+    190109 568  .11-  .02-    190112 291  .25-  .77+    
190109 V06  .03+  .12-    190110 807  .34-  .15+    

Ephemerides (geocentric):
Date (UTC) HH   RA              Dec         delta   r     elong  mag " sig PA
---- -- -- --  -------------   -----------  ------ ------ -----  --- ---- ---
2019 01 12 22  02 48 14.852   -10 07 54.32  .95662 1.5154 102.7 22.0 .318 110
2019 01 12 23  02 48 20.037   -10 06 22.03  .95733 1.5159 102.7 22.0 .331 110
2019 01 13 00  02 48 25.219   -10 04 49.84  .95805 1.5163 102.7 22.0 .344 110
2019 01 13 01  02 48 30.397   -10 03 17.75  .95877 1.5168 102.7 22.0 .357 110
2019 01 13 02  02 48 35.572   -10 01 45.76  .95949 1.5173 102.7 22.0 .371 109
2019 01 13 03  02 48 40.743   -10 00 13.86  .96020 1.5178 102.7 22.0 .385 109
2019 01 13 04  02 48 45.910   -09 58 42.07  .96092 1.5182 102.7 22.0 .399 109
2019 01 13 05  02 48 51.074   -09 57 10.37  .96164 1.5187 102.7 22.0 .413 109
2019 01 13 06  02 48 56.235   -09 55 38.77  .96236 1.5192 102.6 22.0 .427 109
2019 01 13 07  02 49 01.392   -09 54 07.27  .96308 1.5196 102.6 22.0 .441 109
2019 01 13 08  02 49 06.545   -09 52 35.86  .96380 1.5201 102.6 22.0 .456 109
2019 01 13 09  02 49 11.695   -09 51 04.56  .96452 1.5206 102.6 22.0 .471 109
2019 01 13 10  02 49 16.841   -09 49 33.35  .96524 1.5210 102.6 22.0 .486 108
2019 01 13 11  02 49 21.984   -09 48 02.24  .96596 1.5215 102.6 22.0 .501 108
2019 01 13 12  02 49 27.124   -09 46 31.22  .96668 1.5220 102.6 22.0 .517 108
2019 01 13 13  02 49 32.260   -09 45 00.30  .96740 1.5225 102.6 22.0 .533 108
2019 01 13 14  02 49 37.392   -09 43 29.48  .96812 1.5229 102.6 22.0 .549 108
2019 01 13 15  02 49 42.521   -09 41 58.76  .96884 1.5234 102.6 22.0 .565 108
2019 01 13 16  02 49 47.647   -09 40 28.13  .96956 1.5239 102.6 22.0 .581 108
2019 01 13 17  02 49 52.769   -09 38 57.60  .97029 1.5243 102.6 22.0 .598 108
2019 01 13 18  02 49 57.888   -09 37 27.17  .97101 1.5248 102.5 22.0 .615 107
2019 01 13 19  02 50 03.003   -09 35 56.83  .97173 1.5253 102.5 22.0 .632 107
2019 01 13 20  02 50 08.115   -09 34 26.58  .97245 1.5257 102.5 22.0 .649 107
2019 01 13 21  02 50 13.224   -09 32 56.44  .97318 1.5262 102.5 22.0 .666 107
2019 01 13 22  02 50 18.329   -09 31 26.39  .97390 1.5267 102.5 22.0 .684 107
2019 01 13 23  02 50 23.431   -09 29 56.43  .97462 1.5271 102.5 22.0 .702 107
2019 01 14 00  02 50 28.529   -09 28 26.57  .97535 1.5276 102.5 22.0 .720 107
2019 01 14 01  02 50 33.625   -09 26 56.81  .97607 1.5281 102.5 22.0 .738 107
2019 01 14 02  02 50 38.716   -09 25 27.14  .97679 1.5286 102.5 22.0 .757 106
2019 01 14 03  02 50 43.805   -09 23 57.56  .97752 1.5290 102.5 22.0 .775 106
2019 01 14 04  02 50 48.890   -09 22 28.08  .97824 1.5295 102.5 22.0 .794 106
2019 01 14 05  02 50 53.972   -09 20 58.70  .97897 1.5300 102.4 22.0 .813 106
2019 01 14 06  02 50 59.050   -09 19 29.41  .97969 1.5304 102.4 22.1 .833 106
2019 01 14 07  02 51 04.126   -09 18 00.21  .98042 1.5309 102.4 22.1 .852 106
2019 01 14 08  02 51 09.197   -09 16 31.11  .98114 1.5314 102.4 22.1 .872 106
2019 01 14 09  02 51 14.266   -09 15 02.11  .98187 1.5318 102.4 22.1 .892 106
2019 01 14 10  02 51 19.332   -09 13 33.19  .98260 1.5323 102.4 22.1 .912 105
2019 01 14 11  02 51 24.394   -09 12 04.38  .98332 1.5328 102.4 22.1 .933 105
2019 01 14 12  02 51 29.453   -09 10 35.65  .98405 1.5332 102.4 22.1 .954 105
2019 01 14 13  02 51 34.508   -09 09 07.02  .98478 1.5337 102.4 22.1 .974 105
2019 01 14 14  02 51 39.561   -09 07 38.48  .98550 1.5342 102.4 22.1 1.00 105
2019 01 14 15  02 51 44.610   -09 06 10.04  .98623 1.5346 102.4 22.1 1.02 105
2019 01 14 16  02 51 49.656   -09 04 41.69  .98696 1.5351 102.3 22.1 1.04 105
2019 01 14 17  02 51 54.699   -09 03 13.43  .98769 1.5356 102.3 22.1 1.06 105
2019 01 14 18  02 51 59.738   -09 01 45.26  .98842 1.5360 102.3 22.1 1.08 105
2019 01 14 19  02 52 04.775   -09 00 17.19  .98914 1.5365 102.3 22.1 1.10 104
2019 01 14 20  02 52 09.808   -08 58 49.21  .98987 1.5370 102.3 22.1 1.13 104
2019 01 14 21  02 52 14.838   -08 57 21.33  0.9906 1.5374 102.3 22.1 1.15 104